Home > Weather > Steyr > Past weeks

Flag for Austria Weather for the Past 2 Weeks in Steyr, Upper Austria, Austria

Now
36 °F

Chilly.


Feels Like: 29 °F
Forecast: 27 / 39 °F
Wind: 9 mph from West

Location: Kremsmuenster

Current Time: Feb 11, 2016 at 12:14:30 AM

Latest Report: Feb 10, 2016 at 11:00 PM


Visibility: N/A

Pressure: 29.64 "Hg

Humidity: 79%

Dew point: 30 °F

Location of SteyrLocation

Historic Weather in Steyr — Graph

°F

Steyr Temperature Yesterday

Maximum temperature yesterday: 55 °F (at 12:00 AM)
Minimum temperature yesterday: 35 °F (at 3:00 PM)
Average temperature yesterday: 38 °F

High & Low Weather Summary for the Past Weeks

 TemperatureHumidityPressure
High57 °F (Jan 28, 1:00 PM)98% (Jan 30, 5:00 PM)30.48 "Hg (Jan 30, 5:00 PM)
Low29 °F (Feb 7, 8:00 AM)44% (Feb 9, 11:00 PM)29.23 "Hg (Feb 9, 10:00 PM)
Average42 °F81%30.08 "Hg
* Reported Jan 26 11:00 PM — Feb 10 10:00 PM, Steyr, Weather by CustomWeather, © 2016

Note: Actual official high and low records may vary slightly from our data, if they occured in-between our weather recording intervals... More about our weather records

Advertising

Steyr Weather History for the Previous 24 Hours

 ConditionsComfort  
Time TempWeatherWind HumidityBarometerVisibility
10:00 PM
Wed, Feb 10
35 °FFog.8 mph84%29.63 "HgN/A
9:00 PM38 °FChilly.9 mph71%29.61 "HgN/A
8:00 PM38 °FChilly.9 mph68%29.59 "HgN/A
7:00 PM38 °FOvercast.8 mph70%29.57 "Hg16 mi
6:00 PM38 °FChilly.6 mph71%29.55 "HgN/A
5:00 PM37 °FChilly.6 mph79%29.53 "HgN/A
4:00 PM37 °FChilly.3 mph84%29.54 "HgN/A
3:00 PM35 °FFog.8 mph85%29.54 "HgN/A
2:00 PM38 °FChilly.7 mph75%29.50 "HgN/A
1:00 PM37 °FChilly.8 mph78%29.50 "HgN/A
12:00 PM36 °FChilly.7 mph87%29.50 "HgN/A
11:00 AM36 °FFog.6 mph89%29.47 "HgN/A
10:00 AM36 °FLight rain. Overcast.8 mph86%29.47 "Hg3 mi
9:00 AM36 °FFog.7 mph88%29.44 "HgN/A
8:00 AM36 °FSprinkles. Cloudy.7 mph83%29.44 "HgN/A
7:00 AM37 °FLight rain. Overcast.8 mph78%29.41 "Hg4 mi
6:00 AM37 °FFog.7 mph83%29.41 "HgN/A
5:00 AM36 °FFog.7 mph88%29.41 "HgN/A
4:00 AM37 °FChilly.7 mph88%29.41 "HgN/A
3:00 AM38 °FFog.6 mph87%29.41 "HgN/A
1:00 AM41 °FFog.9 mph83%29.44 "HgN/A
12:00 AM55 °FRefreshingly cool.7 mph45%29.26 "HgN/A
Weather by CustomWeather, © 2016

See weather overviewHow to use our weather pages